TimeEST,TemperatureF,Dew PointF,Humidity,Sea Level PressureIn,VisibilityMPH,Wind Direction,Wind SpeedMPH,Gust SpeedMPH,PrecipitationIn,Events,Conditions,WindDirDegrees,DateUTC
12:15 AM,26.4,23.0,87,30.07,10.0,Calm,Calm,-,N/A,,Overcast,0,2013-03-04 05:15:00
12:35 AM,26.4,23.0,87,30.07,10.0,WSW,3.5,-,N/A,,Overcast,250,2013-03-04 05:35:00
12:55 AM,26.2,23.4,89,30.07,10.0,Calm,Calm,-,N/A,,Overcast,0,2013-03-04 05:55:00
1:15 AM,26.2,23.2,88,30.08,10.0,Calm,Calm,-,N/A,,Overcast,0,2013-03-04 06:15:00
1:35 AM,25.7,23.0,89,30.08,10.0,West,3.5,-,N/A,,Overcast,260,2013-03-04 06:35:00
1:55 AM,25.3,22.8,90,30.09,10.0,WSW,3.5,-,N/A,,Overcast,250,2013-03-04 06:55:00
2:15 AM,25.2,23.0,91,30.09,10.0,Calm,Calm,-,N/A,,Overcast,0,2013-03-04 07:15:00
2:55 AM,24.8,22.6,91,30.09,10.0,Calm,Calm,-,N/A,,Mostly Cloudy,0,2013-03-04 07:55:00
3:15 AM,24.3,22.1,91,30.09,10.0,West,3.5,-,N/A,,Clear,260,2013-03-04 08:15:00
3:55 AM,23.5,22.1,94,30.10,10.0,Calm,Calm,-,N/A,,Clear,0,2013-03-04 08:55:00
4:15 AM,23.0,21.7,95,30.11,10.0,West,3.5,-,N/A,,Clear,270,2013-03-04 09:15:00
4:35 AM,23.4,22.1,95,30.11,10.0,Calm,Calm,-,N/A,,Clear,0,2013-03-04 09:35:00
4:55 AM,23.4,21.7,94,30.11,10.0,Calm,Calm,-,N/A,,Clear,0,2013-03-04 09:55:00
5:15 AM,23.7,21.0,89,30.12,10.0,Calm,Calm,-,N/A,,Clear,0,2013-03-04 10:15:00
5:35 AM,23.0,20.7,91,30.12,10.0,Calm,Calm,-,N/A,,Clear,0,2013-03-04 10:35:00
5:55 AM,22.5,21.0,94,30.13,10.0,WSW,3.5,-,N/A,,Clear,250,2013-03-04 10:55:00
6:15 AM,22.1,21.0,96,30.14,10.0,Calm,Calm,-,N/A,,Clear,0,2013-03-04 11:15:00
6:55 AM,22.5,20.5,92,30.14,10.0,Calm,Calm,-,N/A,,Clear,0,2013-03-04 11:55:00
7:15 AM,22.3,20.1,91,30.15,10.0,Calm,Calm,-,N/A,,Clear,0,2013-03-04 12:15:00
7:35 AM,22.6,20.3,91,30.15,10.0,Calm,Calm,-,N/A,,Clear,0,2013-03-04 12:35:00
7:55 AM,23.9,21.2,89,30.16,10.0,SW,3.5,-,N/A,,Clear,220,2013-03-04 12:55:00
8:15 AM,24.8,21.2,86,30.16,10.0,Calm,Calm,-,N/A,,Clear,0,2013-03-04 13:15:00
8:35 AM,26.4,22.1,84,30.17,10.0,Calm,Calm,-,N/A,,Clear,0,2013-03-04 13:35:00
8:55 AM,27.3,20.5,75,30.17,10.0,Calm,Calm,-,N/A,,Clear,0,2013-03-04 13:55:00
9:15 AM,28.4,18.3,66,30.17,10.0,Calm,Calm,-,N/A,,Clear,0,2013-03-04 14:15:00
9:35 AM,29.1,17.1,61,30.17,10.0,Calm,Calm,-,N/A,,Clear,0,2013-03-04 14:35:00
9:55 AM,30.7,18.3,60,30.16,10.0,South,3.5,-,N/A,,Clear,170,2013-03-04 14:55:00
10:15 AM,31.5,18.9,60,30.16,10.0,Calm,Calm,-,N/A,,Clear,0,2013-03-04 15:15:00
10:35 AM,31.6,17.8,57,30.16,10.0,WNW,3.5,-,N/A,,Clear,290,2013-03-04 15:35:00
10:55 AM,32.4,18.7,57,30.16,10.0,SSW,3.5,-,N/A,,Clear,200,2013-03-04 15:55:00
11:15 AM,33.4,18.9,55,30.15,10.0,Calm,Calm,-,N/A,,Clear,0,2013-03-04 16:15:00
11:35 AM,34.7,19.4,54,30.15,10.0,SW,5.8,-,N/A,,Clear,220,2013-03-04 16:35:00
11:55 AM,35.4,19.0,51,30.14,10.0,Calm,Calm,-,N/A,,Clear,0,2013-03-04 16:55:00
12:15 PM,37.2,20.1,50,30.13,10.0,South,4.6,-,N/A,,Clear,180,2013-03-04 17:15:00
12:55 PM,38.1,19.6,47,30.11,10.0,SSE,4.6,-,N/A,,Clear,150,2013-03-04 17:55:00
1:15 PM,38.7,18.9,45,30.10,10.0,SSW,3.5,-,N/A,,Clear,210,2013-03-04 18:15:00
1:55 PM,41.0,19.4,42,30.08,10.0,SSW,5.8,-,N/A,,Clear,210,2013-03-04 18:55:00
2:15 PM,41.2,17.1,38,30.07,10.0,SW,3.5,-,N/A,,Clear,220,2013-03-04 19:15:00
2:35 PM,42.1,17.4,37,30.06,10.0,Calm,Calm,-,N/A,,Clear,0,2013-03-04 19:35:00
2:55 PM,42.8,18.3,37,30.06,10.0,Calm,Calm,-,N/A,,Clear,0,2013-03-04 19:55:00
3:15 PM,42.4,16.2,35,30.05,10.0,West,3.5,-,N/A,,Clear,280,2013-03-04 20:15:00
3:35 PM,43.3,17.2,35,30.05,10.0,ENE,3.5,-,N/A,,Clear,60,2013-03-04 20:35:00
3:55 PM,45.0,17.4,33,30.04,10.0,East,3.5,-,N/A,,Clear,80,2013-03-04 20:55:00
4:15 PM,44.6,15.8,31,30.04,10.0,Calm,Calm,-,N/A,,Clear,0,2013-03-04 21:15:00
4:35 PM,44.4,15.8,32,30.04,10.0,Calm,Calm,-,N/A,,Clear,0,2013-03-04 21:35:00
4:55 PM,44.6,16.0,32,30.04,10.0,SSW,4.6,-,N/A,,Clear,200,2013-03-04 21:55:00
5:15 PM,43.0,16.3,34,30.03,10.0,Calm,Calm,-,N/A,,Clear,0,2013-03-04 22:15:00
5:35 PM,43.3,17.1,35,30.04,10.0,Calm,Calm,-,N/A,,Mostly Cloudy,0,2013-03-04 22:35:00
5:55 PM,43.0,17.1,35,30.04,10.0,Calm,Calm,-,N/A,,Overcast,0,2013-03-04 22:55:00
6:15 PM,43.0,18.0,37,30.04,10.0,Calm,Calm,-,N/A,,Overcast,0,2013-03-04 23:15:00
6:35 PM,42.3,18.9,39,30.04,10.0,Calm,Calm,-,N/A,,Overcast,0,2013-03-04 23:35:00
6:55 PM,41.2,21.4,45,30.04,10.0,Calm,Calm,-,N/A,,Overcast,0,2013-03-04 23:55:00
7:15 PM,41.0,21.0,45,30.04,10.0,Calm,Calm,-,N/A,,Overcast,0,2013-03-05 00:15:00
7:35 PM,41.2,19.8,42,30.04,10.0,Calm,Calm,-,N/A,,Overcast,0,2013-03-05 00:35:00
7:55 PM,40.3,21.7,48,30.04,10.0,ENE,4.6,-,N/A,,Overcast,60,2013-03-05 00:55:00
8:15 PM,40.5,21.0,46,30.04,10.0,ENE,3.5,-,N/A,,Overcast,70,2013-03-05 01:15:00
8:35 PM,40.5,20.1,44,30.03,10.0,ENE,5.8,-,N/A,,Overcast,70,2013-03-05 01:35:00
8:55 PM,40.1,21.0,47,30.03,10.0,ENE,4.6,-,N/A,,Overcast,70,2013-03-05 01:55:00
9:35 PM,39.4,23.2,52,30.00,10.0,East,6.9,-,N/A,,Overcast,90,2013-03-05 02:35:00
9:55 PM,39.4,23.5,53,30.00,10.0,East,3.5,-,N/A,,Overcast,100,2013-03-05 02:55:00
10:15 PM,40.1,22.1,49,30.00,10.0,East,4.6,-,N/A,,Overcast,100,2013-03-05 03:15:00
10:35 PM,39.9,22.3,49,30.00,10.0,East,4.6,-,N/A,,Overcast,80,2013-03-05 03:35:00
10:55 PM,39.7,21.9,49,30.01,10.0,East,3.5,-,N/A,,Overcast,90,2013-03-05 03:55:00
11:15 PM,39.2,22.3,51,30.01,10.0,East,3.5,-,N/A,,Overcast,80,2013-03-05 04:15:00
11:35 PM,39.4,22.1,50,30.01,10.0,Calm,Calm,-,N/A,,Overcast,0,2013-03-05 04:35:00
11:55 PM,38.8,23.0,53,30.02,10.0,Calm,Calm,-,N/A,,Overcast,0,2013-03-05 04:55:00